Weather History for Logan, UT

Change the Weather History Date:

Thursday, May 3, 2012

  Actual Average Record
Temperature  
Mean Temperature 52 °F -  
Max Temperature 64 °F 67 °F 85 °F (1966)
Min Temperature 42 °F 38 °F 26 °F (1959)
Degree Days  
Heating Degree Days 12    
Growing Degree Days 2 (Base 50)    
Moisture  
Dew Point 39 °F    
Average Humidity 60    
Maximum Humidity 80    
Minimum Humidity 40    
Precipitation  
Precipitation 0.01 in - - ()
Sea Level Pressure  
Sea Level Pressure 29.79 in    
Wind  
Wind Speed 5 mph (North)    
Max Wind Speed 20 mph    
Max Gust Speed 29 mph    
Visibility 10 miles    
Events      
Averages and records for this station are not official NWS values.
T = Trace of Precipitation, MM = Missing Value Source: NWS Daily Summary

Daily Weather History Graph

Daily Weather History Graph

Search for Another Location

Airport:

Trip Planner

Search our weather history database for the weather conditions in past years. The results will help you decide how hot, cold, wet, or windy it might be!

Date:

Astronomy

May. 03, 2012 Rise Set
Actual Time 6:20 AM MDT 8:28 PM MDT
Civil Twilight 5:49 AM MDT 8:59 PM MDT
Nautical Twilight 5:12 AM MDT 9:36 PM MDT
Astronomical Twilight 4:31 AM MDT 10:18 PM MDT
Moon 5:55 PM MDT (5/3) 4:29 AM MDT (5/3)
Length of Visible Light 15h 09m
Length of Day
14h 08m
Waxing Gibbous, 91% of the Moon is Illuminated
May 3
Waxing Gibbous
May 5
Full
May 12
Last Quarter
May 20
New
May 28
First Quarter

Hourly Weather History & Observations

Time (MDT) Temp. Windchill Dew Point Humidity Pressure Visibility Wind Dir Wind Speed Gust Speed Precip Events Conditions
12:51 AM 46.9 °F - 37.0 °F 68% 29.79 in 10.0 mi North 5.8 mph - N/A   Clear
1:51 AM 45.0 °F 41.8 °F 35.1 °F 68% 29.79 in 10.0 mi SSW 5.8 mph - N/A   Clear
2:51 AM 42.1 °F - 36.0 °F 79% 29.79 in 10.0 mi Calm Calm - N/A   Clear
4:51 AM 44.1 °F 39.0 °F 37.9 °F 79% 29.79 in 10.0 mi East 9.2 mph - N/A   Partly Cloudy
5:51 AM 44.1 °F - 37.9 °F 79% 29.77 in 10.0 mi Calm Calm - N/A   Partly Cloudy
6:51 AM 44.1 °F 40.1 °F 37.9 °F 79% 29.77 in 10.0 mi West 6.9 mph - N/A   Scattered Clouds
7:51 AM 46.9 °F - 37.0 °F 68% 29.78 in 10.0 mi ENE 3.5 mph - N/A   Mostly Cloudy
8:51 AM 52.0 °F - 34.0 °F 50% 29.77 in 10.0 mi Calm Calm - N/A   Clear
9:51 AM 54.0 °F - 33.1 °F 45% 29.78 in 10.0 mi Calm Calm - N/A   Partly Cloudy
10:51 AM 55.0 °F - 39.9 °F 57% 29.78 in 10.0 mi Calm Calm - N/A   Scattered Clouds
11:51 AM 57.9 °F - 41.0 °F 53% 29.78 in 10.0 mi Calm Calm - N/A   Scattered Clouds
12:51 PM 62.1 °F - 39.9 °F 44% 29.77 in 10.0 mi North 4.6 mph - N/A   Partly Cloudy
1:51 PM 63.0 °F - 41.0 °F 45% 29.78 in 10.0 mi West 10.4 mph - N/A   Overcast
2:51 PM 63.0 °F - 37.9 °F 40% 29.78 in 10.0 mi WNW 9.2 mph - N/A   Overcast
4:51 PM 61.0 °F - 39.0 °F 44% 29.78 in 10.0 mi NNW 8.1 mph - N/A   Overcast
5:51 PM 59.0 °F - 37.0 °F 44% 29.80 in 10.0 mi North 19.6 mph 28.8 mph N/A   Mostly Cloudy
6:51 PM 57.0 °F - 41.0 °F 55% 29.82 in 10.0 mi North 8.1 mph - N/A   Mostly Cloudy
7:51 PM 59.0 °F - 36.0 °F 42% 29.81 in 10.0 mi NE 3.5 mph - N/A   Overcast
9:51 PM 55.0 °F - 44.1 °F 67% 29.82 in 10.0 mi ESE 12.7 mph - 0.01 in   Overcast
10:51 PM 54.0 °F - 45.0 °F 72% 29.82 in 10.0 mi SE 11.5 mph - 0.00 in   Overcast
11:51 PM 51.1 °F - 45.0 °F 80% 29.83 in 10.0 mi NW 8.1 mph - N/A   Overcast